Theta_e
317 316 312 307 318 323 324 321 321 323 321 318 312 311 310 312 315 317 322 318 318 314 311 311 315 313 315 317 316 317 323 324 323 323 322 320 320 318 318 320 322 323 322 328 338
318 317 316 307 309 318 322 321 318 318 317 314 310 310 310 310 310 310 317 314 312 313 311 312 315 314 316 318 317 319 323 324 322 321 321 320 318 317 317 319 320 322 322 333 335
319 317 317 315 307 310 316 319 314 314 313 311 309 309 310 309 310 311 312 312 311 310 311 312 314 314 316 317 317 319 323 320 318 318 320 319 319 318 318 319 319 319 324 333 335
319 317 317 316 314 307 308 314 311 312 311 309 309 309 309 308 313 311 312 311 310 310 310 312 313 315 316 317 317 319 316 318 316 315 319 319 318 318 319 319 318 319 323 331 327
320 318 317 316 315 313 307 308 311 309 314 309 309 309 308 310 312 311 309 310 309 309 310 313 314 315 316 316 315 317 315 315 315 315 318 317 318 319 318 318 316 317 324 330 333
318 318 316 316 316 316 313 307 308 308 309 310 309 308 308 311 310 309 311 309 309 309 312 313 314 314 315 315 316 316 314 313 315 315 315 318 317 316 318 316 315 316 322 329 330
316 318 316 316 316 316 316 308 308 308 308 309 308 309 310 311 309 308 309 310 309 311 313 313 313 313 314 313 312 314 315 314 314 314 314 315 316 317 314 313 314 316 319 323 328
314 317 316 316 316 316 315 309 308 308 308 308 307 307 310 309 308 308 309 311 311 311 312 312 312 313 314 312 312 314 316 316 314 314 313 314 320 318 313 312 313 314 316 320 324
313 315 316 315 315 315 315 310 308 308 308 307 307 310 310 307 308 309 311 312 311 312 311 312 312 314 313 315 314 314 315 316 313 314 314 314 317 314 312 312 313 314 314 316 319
313 315 316 315 314 315 315 309 308 307 307 307 311 308 308 309 308 310 311 312 311 310 311 312 313 314 315 315 314 314 315 315 315 314 313 314 315 313 313 313 314 314 313 313 314
312 314 315 314 314 314 313 310 311 313 311 309 310 309 308 308 308 310 311 311 312 312 313 313 314 314 314 315 315 316 315 314 314 312 314 315 315 315 314 314 314 315 314 313 313
313 314 315 314 313 313 311 311 310 310 312 309 309 308 308 310 310 310 310 312 312 313 313 313 314 315 315 315 314 315 314 314 312 312 314 315 314 315 315 314 314 315 315 315 314
312 312 315 314 313 314 310 310 309 309 308 311 312 310 309 309 310 310 311 312 313 313 313 313 313 314 314 313 313 314 314 314 314 312 312 313 314 315 315 314 314 314 314 313 312
313 314 314 313 313 314 313 310 308 308 310 309 311 309 309 311 311 310 311 312 312 313 313 312 312 313 313 313 313 313 313 313 313 314 313 312 313 316 315 313 312 312 312 312 312
313 312 313 310 313 314 312 308 307 308 313 310 310 310 310 311 310 310 310 309 312 313 312 312 311 312 313 313 313 313 312 313 313 313 313 313 312 314 313 313 313 312 313 312 312
314 313 313 312 312 312 309 309 310 313 314 310 310 311 311 311 311 309 310 309 310 311 311 312 309 312 313 311 312 311 312 312 313 313 312 313 313 313 314 313 314 312 312 312 311
312 313 313 312 313 310 308 309 313 313 311 313 310 311 310 311 311 311 311 310 311 311 311 311 310 309 310 311 311 312 313 313 312 312 312 311 313 314 315 311 312 313 312 311 310
313 314 312 313 312 308 308 312 313 311 310 311 310 311 311 311 311 311 311 311 310 311 311 311 311 311 310 312 312 312 313 314 315 314 314 309 312 314 314 309 310 312 312 311 310
314 312 314 313 311 309 312 313 313 312 312 313 311 311 310 310 310 311 311 312 311 311 311 311 312 310 310 310 312 312 312 313 312 310 315 314 313 313 312 311 310 312 311 310 310
314 313 314 312 309 310 312 313 311 311 312 311 311 311 311 311 311 311 311 311 312 311 311 311 312 311 309 310 311 312 312 311 313 320 317 312 313 314 314 312 311 311 310 310 309
314 315 313 312 307 310 311 311 311 310 312 311 312 311 311 311 311 311 311 311 312 311 310 311 312 312 310 311 311 310 311 311 312 313 317 314 312 313 313 314 313 311 311 310 309
310 306 312 310 308 308 310 311 311 311 312 312 313 312 312 312 311 311 311 311 311 311 310 310 313 314 311 311 312 311 311 312 313 313 312 314 313 310 311 314 313 312 311 310 308
301 301 309 309 308 307 311 312 311 312 313 313 313 312 312 312 312 312 311 310 310 311 311 311 316 317 312 311 312 312 311 312 312 315 320 316 313 312 310 312 313 312 311 309 308
300 304 301 307 309 309 310 313 312 312 312 313 314 313 312 312 312 313 312 311 309 311 310 309 314 313 313 312 312 312 312 311 312 320 313 314 313 313 312 312 312 311 310 308 306
300 301 301 307 308 310 310 311 312 313 313 313 314 314 312 314 312 313 312 314 309 309 310 311 314 312 312 312 313 314 313 313 311 312 313 312 312 312 313 313 312 311 309 307 306
299 301 300 303 306 309 310 311 310 312 313 314 313 314 314 314 313 313 312 313 313 311 311 311 315 313 311 312 312 314 313 313 312 311 312 312 312 313 313 312 312 311 309 308 306
299 300 301 301 306 309 309 310 311 311 309 312 313 314 315 315 313 313 312 312 313 312 311 312 313 314 314 313 313 312 311 313 313 312 312 311 312 312 312 312 312 311 309 308 308
Wind_Speed
28 27 29 34 36 34 29 28 28 27 22 19 18 19 17 17 19 19 22 19 20 10 7 11 10 8 8 7 7 3 5 9 9 10 10 15 10 7 4 7 6 6 2 5 18
29 28 25 31 34 36 32 30 28 26 24 21 19 18 17 16 15 19 22 20 15 16 9 9 10 7 7 6 6 6 7 8 6 4 11 17 10 13 8 9 7 8 6 14 16
30 27 26 25 33 34 34 31 28 26 24 22 20 18 17 14 7 16 21 18 17 16 13 11 9 10 8 7 7 6 9 6 5 5 11 15 9 9 7 8 9 12 12 16 18
30 28 26 24 26 32 33 34 28 27 24 22 20 18 17 14 7 10 18 19 16 16 13 15 11 8 7 6 6 8 1 5 7 6 10 15 12 8 9 6 3 6 13 17 19
30 29 27 23 23 28 32 32 33 28 27 22 20 19 17 12 12 4 12 20 22 16 17 16 15 13 8 8 5 3 6 6 9 7 9 10 10 5 10 6 4 7 12 15 16
30 30 27 24 24 25 28 32 32 31 28 26 22 21 19 18 12 11 5 17 23 20 15 16 12 13 7 6 12 4 9 10 9 9 6 9 6 4 7 10 8 6 11 13 16
32 29 29 25 24 24 25 29 30 29 27 26 26 26 14 16 11 13 8 15 22 18 13 14 8 12 6 5 4 13 8 7 8 6 4 4 4 9 8 8 10 10 10 13 15
33 31 31 28 25 23 23 28 27 27 24 23 22 22 10 19 11 14 13 14 18 18 14 13 13 9 5 8 6 7 8 8 6 7 2 4 10 14 9 8 9 10 13 12 15
38 33 34 30 28 23 22 26 25 23 23 20 18 12 11 11 14 14 15 15 18 17 15 13 10 6 6 11 8 8 11 16 6 8 4 9 7 12 6 8 11 13 12 14 14
38 34 31 32 31 27 25 28 25 22 21 19 8 8 11 10 21 17 17 16 13 16 10 9 8 8 10 13 15 15 12 14 12 9 7 10 11 4 6 8 9 11 14 13 15
41 35 36 34 35 32 31 34 21 9 20 12 10 4 11 14 19 17 19 18 12 16 10 15 10 15 17 15 13 15 14 13 7 2 7 13 12 13 13 9 10 11 13 14 13
47 38 37 35 36 36 38 25 30 11 10 7 5 9 9 12 10 18 22 13 13 13 15 6 15 16 14 13 5 9 15 11 4 3 4 5 12 12 15 17 16 13 14 13 11
46 44 39 38 40 37 40 23 24 25 8 6 5 12 7 14 8 21 24 12 17 18 16 14 12 11 9 10 13 11 13 10 3 6 2 4 9 13 11 18 14 15 12 10 11
45 44 45 40 41 41 35 26 25 16 5 5 5 9 12 10 5 18 24 11 7 18 17 13 4 13 13 16 13 13 5 9 11 10 6 3 5 10 12 11 13 17 15 13 12
45 47 46 47 32 42 33 30 28 12 7 15 10 7 13 12 14 12 18 5 11 13 8 8 10 14 14 17 15 7 9 9 7 6 3 7 5 12 7 10 14 17 15 12 11
46 49 48 48 32 39 34 30 23 6 8 8 14 14 11 13 6 11 15 4 5 7 6 4 2 9 6 4 11 14 10 8 4 4 7 12 10 9 11 10 10 14 14 13 12
50 47 50 52 37 45 40 31 5 7 11 11 11 14 23 12 9 14 20 14 11 11 13 5 6 4 6 10 8 11 15 4 5 5 6 4 5 15 4 4 6 13 15 13 13
53 50 48 46 37 49 44 14 7 17 21 6 13 14 20 17 9 12 19 18 21 17 14 13 9 14 11 8 11 17 17 7 6 6 6 3 9 6 3 7 6 8 15 14 13
49 49 52 47 43 54 38 18 14 22 21 13 19 23 14 13 7 10 18 21 20 20 12 15 11 6 6 3 14 14 11 3 5 1 1 7 9 10 8 6 8 11 13 13 12
45 49 38 48 58 52 18 20 16 10 19 19 13 17 24 23 15 18 20 15 16 21 19 6 8 3 4 3 5 9 12 5 5 5 5 8 10 10 7 13 12 14 16 15 13
33 30 41 60 61 37 20 20 18 9 18 19 14 15 22 22 21 15 14 9 24 19 19 6 1 4 6 12 15 6 9 8 5 8 5 5 8 5 11 14 17 20 21 20 19
21 5 52 65 13 10 15 22 21 13 14 16 10 8 18 21 18 16 20 15 23 19 19 11 4 5 12 2 2 14 17 18 7 9 6 2 10 3 2 2 17 19 21 19 17
9 6 27 72 11 16 8 22 17 17 16 14 12 13 7 15 10 17 13 7 17 18 15 10 6 5 1 4 6 9 12 15 17 0 7 6 11 2 2 4 11 18 20 20 20
6 4 7 31 26 18 13 21 15 20 17 9 7 10 10 13 12 15 13 4 14 19 13 22 4 15 16 18 10 10 16 17 17 5 16 12 23 10 6 8 12 18 21 20 20
1 1 3 11 9 20 17 20 18 12 9 15 7 16 13 7 17 7 17 5 4 6 10 10 9 11 19 10 1 8 15 17 17 23 16 26 23 28 11 12 20 18 20 24 27
1 2 5 3 15 21 18 18 27 18 17 19 14 14 15 12 11 12 12 10 8 6 13 8 3 10 5 7 4 2 11 21 24 25 23 23 21 26 18 15 17 26 30 30 30
1 3 3 2 10 13 15 16 21 19 4 16 15 13 14 11 8 2 14 14 8 11 14 10 6 4 7 5 5 5 26 14 18 23 21 23 33 18 13 14 19 22 31 38 40
Wind_Direction
210 212 215 215 213 210 206 203 196 197 194 200 202 197 201 212 219 225 226 224 224 206 192 198 217 207 199 215 187 210 241 200 183 184 144 160 160 155 159 139 161 161 100 115 169
209 208 214 210 213 211 208 204 200 197 197 198 200 197 195 204 215 227 223 217 218 212 221 201 220 218 220 207 189 220 226 205 157 123 157 168 171 153 165 162 180 164 142 146 167
210 207 207 211 206 210 208 205 200 197 196 196 195 193 190 192 225 239 226 219 222 222 214 211 187 204 236 217 188 192 223 129 144 116 151 159 159 161 184 181 184 190 173 166 175
208 204 205 205 204 204 206 202 201 199 195 192 190 189 185 176 212 215 221 220 219 217 204 199 187 190 231 207 188 189 84 146 142 141 152 161 157 176 186 91 121 149 175 176 189
206 201 200 204 202 197 202 195 201 197 198 192 189 188 178 195 234 217 202 201 205 204 197 191 186 196 228 207 190 214 155 115 128 142 152 148 170 154 195 173 162 158 173 183 194
206 197 196 198 199 195 196 194 192 193 192 190 190 193 183 220 231 218 209 196 199 198 193 193 196 205 245 225 215 150 147 120 134 146 144 170 161 186 180 171 191 189 187 196 199
207 195 191 192 197 194 193 190 188 189 188 187 190 194 206 214 220 209 202 193 192 191 194 200 210 191 170 166 156 152 129 135 147 162 126 177 194 219 152 168 190 205 199 201 205
204 196 187 188 195 192 189 184 182 184 184 186 184 179 220 218 213 195 195 187 187 194 181 203 204 194 204 131 135 176 174 175 158 176 146 205 222 204 171 199 202 207 206 205 207
199 195 188 184 192 188 189 172 171 178 178 177 178 177 223 200 201 188 188 188 184 189 193 191 174 192 150 176 174 199 204 205 157 206 160 204 228 139 176 209 223 216 212 206 215
194 188 190 180 187 185 179 161 158 163 161 163 170 192 226 194 192 184 181 179 167 170 156 171 189 203 206 203 200 189 222 199 193 190 212 197 233 178 201 221 224 219 220 212 213
193 194 185 181 186 179 168 146 138 160 175 181 197 198 150 177 183 182 174 169 158 168 175 187 202 211 207 216 239 201 199 194 185 140 212 222 239 234 217 236 235 223 217 216 211
192 184 184 183 187 182 175 166 173 198 162 202 175 201 182 159 158 180 169 169 169 180 186 176 212 208 221 216 203 202 200 178 123 142 233 195 247 244 238 231 234 233 223 215 202
192 188 182 179 183 183 181 175 174 152 145 187 185 188 176 179 182 179 176 180 179 182 189 200 201 205 183 191 205 201 199 169 170 153 213 251 255 238 226 231 226 232 232 218 213
189 183 175 177 178 183 182 170 166 155 131 189 203 214 181 178 187 170 181 180 184 196 193 221 157 179 192 205 203 203 257 162 142 175 221 220 260 200 214 208 212 218 219 220 221
189 181 178 184 178 179 177 168 165 157 178 164 168 181 177 179 141 180 182 196 172 161 181 172 159 178 203 202 198 228 162 172 168 216 253 200 257 249 154 219 219 213 207 205 210
187 185 179 178 180 177 172 163 161 123 218 171 153 176 159 188 161 137 177 178 118 145 218 111 65 197 208 84 192 130 121 108 147 201 244 229 220 245 211 230 228 179 193 195 202
185 187 183 180 172 173 166 158 125 190 158 169 183 177 184 174 164 181 183 191 176 171 186 146 171 136 162 121 147 170 168 162 210 208 245 29 198 246 211 195 195 188 187 190 194
185 186 188 180 177 163 160 167 191 188 188 169 161 166 186 157 185 191 184 197 217 215 184 183 197 181 174 207 172 193 194 181 199 208 208 101 228 245 244 114 163 176 179 181 186
187 191 187 182 176 165 170 178 201 179 183 148 153 164 185 183 157 171 199 205 201 205 217 192 184 110 187 135 159 192 216 254 107 66 193 203 246 265 175 187 190 179 172 183 183
192 184 190 187 170 171 181 200 199 170 161 162 172 180 181 186 179 191 187 208 204 201 223 194 187 202 113 155 225 211 169 180 229 186 234 235 251 247 205 216 199 192 198 187 184
185 183 193 173 168 176 191 197 188 173 171 178 186 183 191 185 191 191 197 202 197 189 210 209 230 133 155 209 182 175 186 224 241 225 222 244 249 259 231 205 198 197 193 188 186
194 127 168 164 168 192 198 193 180 169 191 199 187 180 191 180 194 192 215 199 194 166 195 192 103 155 197 71 314 240 213 201 199 207 237 5 267 133 193 199 193 186 187 186 187
120 137 164 163 169 190 169 199 180 177 177 179 205 182 192 174 177 203 199 145 181 179 184 170 173 114 170 247 214 225 215 237 231 282 196 202 257 39 97 148 175 178 180 182 183
156 142 154 180 189 175 178 187 176 184 174 182 144 163 156 177 206 197 211 144 183 194 208 166 165 208 211 216 149 204 212 213 220 211 234 221 251 205 181 173 177 182 184 186 187
130 190 136 177 183 174 176 181 174 166 193 179 186 198 176 161 192 200 197 121 168 186 185 178 205 223 243 241 206 200 203 210 211 223 215 233 235 253 201 196 199 188 181 188 195
239 175 101 117 156 169 179 183 193 175 171 197 209 193 196 193 192 180 180 174 180 181 195 209 230 218 265 231 216 234 227 212 213 225 232 247 254 252 257 194 181 190 190 196 197
193 93 99 121 160 170 188 168 189 179 221 212 200 179 200 215 177 208 185 184 169 169 185 176 147 135 229 120 104 288 230 218 224 231 229 234 245 250 236 203 202 192 202 208 206